SL-14 DEB

Satellite information

Favourite Embed

Satellite Type and Status

DEBRISIN ORBIT

Key statistics

Satellite SL-14 DEB at a glance.

Uptime

12381

Days in orbit

Revolutions

≈ 12.8

Per day

Orbit

LEO

Low Earth Orbit

Inclination

82.5

Latest

Satellite identification and parameters

Extended collection of information and parameters for SL-14 DEB.

Object identification

Identified? True

Debris? True

Object name: SL-14 DEB

International designator: 1991-056V

Object number (NORAD): 45283

Object ID (CCSDS): 45283

Country: COMMONWEALTH OF INDEPENDENT STATES (CIS)

Current information (Y/N): Y

RCS size: SMALL

Orbital parameters

Period: 112.699 minutes

Inclination: 82.5221 deg

SMA: 7728.697 km

Apoapsis: 1560.296 km

Periapsis: 1140.827 km

RAAN: 126.2481 deg

Eccentricy: 0.0271371

Argument of periapsis: 20.8419 deg

Mean anomaly: 340.3496 deg

Mean motion: 12.7774261 rev/day

Mean motion (dot): 0.00002847 rev/day2

B* drag term: 0.011037 1/REarth

Two-line elements (TLE)

Creation date: July 8, 2025, 2:27 a.m.

Reference frame: TEME

Reference center: EARTH

Epoch: July 7, 2025, 7:42 p.m. UTC

TLE line 0: 0 SL-14 DEB

TLE line 1: 1 45283U 91056V 25188.82104715 .00002847 00000-0 11037-1 0 9999

TLE line 2: 2 45283 82.5221 126.2481 0271371 20.8419 340.3496 12.77742610250387

Live tracking on map

Real-time ground track for satellite SL-14 DEB.

In-orbit conjunctions

A list of the most updated potential collisions computed for object SL-14 DEB.

Target Orbit TCA Probability of collision Miss distance Type
DELTA 1 R/B SSO 2025-03-06 20:40:53 0.0003798126 217.0 (m) ROCKET BODY
NOAA 1 DEB * SSO 2024-09-27 16:52:48 0.0002485421 766.0 (m) DEBRIS

Associated space launch

Third generation meteorological satellite

SL-14 DEB was lifted into orbit during the mission ‘Tsiklon-3 | Meteor-3 5’, on board a Tsiklon-3 space rocket.

The launch took place on Aug. 15, 1991, 9:15 a.m. from 32/2.

For more information about the launch, click the button.

Launch to space Tsiklon-3 | Meteor-3 5
Tsiklon-3 | Meteor-3 5

Agency: N/A

Status: Launch Successful

Launch date: Aug. 15, 1991, 9:15 a.m. UTC

Rocket: Tsiklon-3

Launch pad: 32/2

Location: Plesetsk Cosmodrome, Russian Federation

...

Latest news about this satellite

There are no fresh news available about this satellite. Check back as we update our databases every day.


Newsletter sign-up

Weekly statistics, charts and insights to help you stay on top of the space industry.